THORAD AGENA D DEB, 6139

Orbit data source: Space-Track

THORAD AGENA D DEB, 6139 is space debris in SSO originally from a launch on Wed, 08 Apr 1970 UTC launched from the Air Force Western Test Range (AFWTR). Debris objects in space refer to the collection of defunct objects orbiting the Earth. Examples of debris include non-operational satellites, rocket bodies, and fragments generated from explosions, collisions, or faulty payload assembly.

Loading next visibility...
Identifier
6139, 1970-025MV
Orbit
SSO
Country
Flag of USUS
Related business
Manufacturer
Unknown
Mission
Spacecraft
Bus & Motor
Unknown
Mass
Unknown
Launch date (UTC)
1970-04-08 (56 years ago)
Launch vehicle
Unknown
Launch site
Air Force Western Test Range (AFWTR)
Object type
Payload
Rocket body
Debris
Shape & HBR
Unknown shape, 0.1 m
Radar Cross Section
Small (<0.1 m²)

Expand to show TLE details & history
Last TLE update: 6 hours ago

TLE from 6 hours ago
0 THORAD AGENA D DEB
1  6139U 70025MV  26127.58161324  .00001935  00000-0  12689-2 0  9997
2  6139  98.9172   3.2351 0069288  89.7597 271.1508 14.02048064823320
Epoch: 2026-05-07T13:57Z
TLE epoch observation values (Epoch: 2026-05-07T13:57:31.383Z)
Latitude
-0.00008°
Longitude
-71.57134°
Altitude
888.933 km
Speed
7.408 km/s
True Right ascension
00h 12m 56s
True Declination
0° 00' 00"
Sunlit
Object was in daylight at epoch
Visualization orbit readout
Latitude
Unknown
Longitude
Unknown
Altitude
Unknown
Speed
Unknown
Apparent Right ascension
Unknown
Apparent Declination
Unknown
Sunlit
N/A
Visualization observer readout
Local Sidereal Time
04:15:18
Azimuth
Unknown
Elevation
Unknown
Doppler factor
Unknown
Orbital elements
Apogee altitude
934.221 km
Perigee altitude
833.587 km
Semi-major axis
7,262.041 km
Eccentricity
0.00693
Inclination
98.9172°
RAAN
3.2351°
Arg. of periapsis
89.7597°
True anomaly
270.35687°
Mean anomaly
271.1508°
Eccentric anomaly
270.75384°
Mean motion
3.50716 °/min
Orbital period
102.65 mins
BSTAR
0.0012689

Documentation

Showing up to 5 results
|